Regional Weather Roundup
Issued by NWS

Home | Current Version | Previous Version | Graphics & Text | Print | Product List | Glossary On
Versions: 1 2 3 4 5 6 7 8 9 10 11 12 13 14 15 16 17 18 19 20 21 22 23 24 25 26 27 28 29 30 31 32 33 34 35 36 37 38 39 40 41 42 43 44 45 46 47 48 49 50
000
ASUS43 KIND 091859
RWRIN

WEATHER ROUNDUP FOR INDIANA
NATIONAL WEATHER SERVICE INDIANAPOLIS IN
200 PM EST FRI DEC 09 2016

NOTE: "FAIR" INDICATES FEW OR NO CLOUDS BELOW 12,000 FEET WITH NO
SIGNIFICANT WEATHER AND/OR OBSTRUCTIONS TO VISIBILITY.

* - STATION DOES NOT REPORT WEATHER SUCH AS PRECIPITATION OR FOG.

+ - STATION NOT QUALITY CONTROLLED BY THE NATIONAL WEATHER SERVICE.
    USE DATA WITH CAUTION...ESPECIALLY DEWPOINT AND RELATIVE
    HUMIDITY OBSERVATIONS.

INZ001>003-010>013-019-020-092000-
NORTHWEST INDIANA

CITY           SKY/WX    TMP DP  RH WIND       PRES   REMARKS
GARY /AIRPORT/ CLOUDY    28  14  54 W12       30.51F WCI  18
RENSSELAER +   FLURRIES  28  19  69 NW12      30.51S WCI  18

$$

LMZ046-743>745-092000-
SOUTHERN LAKE MICHIGAN

STATION/POSITION TIME  TEMP    WIND        PRES    WAVE
                       AIR SEA DIR/SP/G            HT
                 (UTC) (F)     (DEG/KT/KT) (MB)    (FT)

$$

INZ004-005-014>016-021>024-092000-
NORTH CENTRAL INDIANA

CITY           SKY/WX    TMP DP  RH WIND       PRES   REMARKS
ELKHART        FLURRIES  27  21  80 W13       30.44F WCI  16
GOSHEN         MOSUNNY   28  18  66 W17       30.43F WCI  16
PERU/GRISSOM   CLOUDY    28  14  54 NW12      30.46F WCI  18
SOUTH BEND     LGT SNOW  24  21  88 W12       30.46F FOG     WCI  13

$$

INZ006>009-017-018-025>027-092000-
NORTHEAST INDIANA

CITY           SKY/WX    TMP DP  RH WIND       PRES   REMARKS
ANGOLA *+      MOSUNNY   28  19  69 W12       30.39S WCI  18
FORT WAYNE     CLOUDY    29  18  63 W16       30.45F WCI  17
KENDALLVILLE + CLOUDY    28  20  72 W9G17     30.41F WCI  20

$$

INZ028-029-035-036-043>045-051>053-092000-
WEST CENTRAL INDIANA

CITY           SKY/WX    TMP DP  RH WIND       PRES   REMARKS
CRAWFORDSVL +  FLURRIES  24  18  77 W7        30.52F WCI  16
GREENCASTLE +  CLOUDY    27  18  69 W3        30.52F
LAFAYETTE      CLOUDY    26  17  68 W8        30.51F WCI  18
TERRE HAUTE    CLOUDY    27  13  55 W5        30.55F WCI  22

$$

INZ030>032-037>040-046>048-054>057-064-065-092000-
CENTRAL INDIANA

CITY           SKY/WX    TMP DP  RH WIND       PRES   REMARKS
ANDERSON       CLOUDY    25  18  74 W12       30.50F WCI  14
COLUMBUS       CLOUDY    25  16  68 CALM      30.54F
GREENWOOD *+   CLOUDY    27  17  64 W8        30.51F WCI  19
INDIANAPOLIS   PTSUNNY   27  14  58 NW10      30.50F WCI  17
-EAGLE CREEK   CLOUDY    26  16  65 W10       30.50F WCI  16
KOKOMO +       CLOUDY    27  17  66 W15       30.49F WCI  15
SHELBYVILLE    CLOUDY    27  15  61 W7        30.50F WCI  19

$$

INZ033-034-041-042-049-050-058-059-092000-
EAST CENTRAL INDIANA

CITY           SKY/WX    TMP DP  RH WIND       PRES   REMARKS
MUNCIE         CLOUDY    26  18  71 W10       30.48F WCI  16

$$

INZ060-061-067>069-081>083-085>088-092000-
SOUTHWEST INDIANA

CITY           SKY/WX    TMP DP  RH WIND       PRES   REMARKS
EVANSVILLE     CLOUDY    31  14  49 MISG      30.60S
HUNTINGBURG *+ CLOUDY    27  16  63 NW5       30.58S WCI  21

$$

INZ062-063-066-070>080-084-089>092-092000-
SOUTH CENTRAL AND SOUTHEAST INDIANA

CITY           SKY/WX    TMP DP  RH WIND       PRES   REMARKS
BLOOMINGTON    CLOUDY    24  13  62 W5        30.53F WCI  18
MADISON *+     CLOUDY    27  12  54 W7        30.56S WCI  19
SEYMOUR +      CLOUDY    28  12  50 CALM      30.55F

$$





USA.gov is the U.S. government's official web portal to all federal, state and local government web resources and services.